[[{"header":{"parameterUnit":"m.s-1","parameterCategory":1,"la1":30.2991,"la2":30.254,"lo1":-89.0895,"lo2":-89.0444,"dy":0.0017,"dx":0.0017,"nx":28,"ny":28,"refTime":"2025-03-16T09:00:00:Z","depth":0,"parameterNumber":2,"parameterNumberName":"U-component_of_WINDS"},"data":[0,0,0,0,0,0,0,0,0,0,0,0,0,0,0,0,0,0,0,0,0,0,0,0,0,0,0,0,0,0,0,0,0,0,0,0,0,0,0,0,0,0,0,0,0,0,0,0,0,0,0,0,0,0,0,0,0,0,2.0747,2.0747,0,2.0825,2.0826,2.0827,2.0843,2.0843,2.0842,2.0841,2.0923,2.0926,2.0928,0,0,0,0,0,0,0,0,0,0,0,0,0,2.0613,2.0615,2.0746,2.0747,2.0748,2.0825,2.0826,2.0827,2.0843,2.0843,2.0842,2.0841,2.0922,2.0925,2.0929,0,0,0,0,0,0,0,0,0,0,0,0,0,2.0679,2.0616,2.0746,2.0766,2.0768,2.0825,2.0826,2.0827,2.0844,2.0843,2.0842,2.0841,2.0921,2.0925,2.0929,2.0972,0,0,2.0942,2.0943,0,0,0,0,0,0,0,0,2.0675,2.0684,2.0762,2.0764,2.0767,2.0823,2.0809,2.0876,2.0844,2.0815,2.0841,2.084,2.0891,2.0897,2.0914,2.0976,2.0979,2.0942,2.0944,2.0946,2.0947,0,0,0,0,0,0,0,2.0671,2.0681,2.0778,2.0763,2.0766,2.0771,2.078,2.0822,2.0857,2.0817,2.0819,2.0828,2.0892,2.091,2.0916,2.0981,2.0942,2.0945,2.0948,2.095,2.1084,2.1085,0,0,0,0,0,0,2.0663,2.0677,2.0775,2.078,2.0718,2.0775,2.0784,2.0806,2.0856,2.0863,2.0828,2.0828,2.0903,2.0911,2.0919,2.0974,2.0946,2.095,2.0952,2.1083,2.1085,2.1086,0,0,0,0,0,0,2.066,2.0671,2.0772,2.0729,2.0742,2.0778,2.0803,2.0808,2.0826,2.0865,2.0871,2.084,2.0903,2.0913,2.0959,2.0977,2.0952,2.0956,2.1082,2.1084,2.1085,2.1083,0,0,0,0,0,0,2.0656,2.067,2.0686,2.0729,2.0744,2.081,2.0804,2.0811,2.0833,2.0834,2.0878,2.0884,2.0903,2.0953,2.0963,2.0982,2.0959,2.108,2.1083,2.1085,2.1082,2.1084,2.1087,0,0,0,0,0,2.0651,2.0682,2.0687,2.0698,2.0765,2.0811,2.082,2.0841,2.0834,2.0851,2.0877,2.0883,2.0973,2.0958,2.0969,2.0989,2.1079,2.1082,2.1084,2.108,2.1084,2.1087,0,0,0,0,0,0,2.064,2.0688,2.0693,2.0739,2.0771,2.0814,2.0835,2.0843,2.0878,2.0877,2.0902,2.0912,2.0957,2.0978,2.0959,2.1035,2.1026,2.1031,2.1019,2.1023,2.1025,2.1019,2.0962,0,0,0,0,0,2.0642,2.0675,2.0716,2.0753,2.0768,2.0799,2.082,2.0834,2.0868,2.0881,2.0909,2.0943,2.0979,2.1002,2.1037,2.1085,2.1096,2.1105,2.1108,2.111,2.1113,2.1142,2.1147,2.1094,2.1094,2.1094,0,0,2.0649,2.0679,2.0698,2.0751,2.0777,2.0812,2.081,2.0846,2.0872,2.0887,2.0932,2.0954,2.0993,2.1041,2.1063,2.106,2.1131,2.1113,2.1114,2.1117,2.1145,2.115,2.1155,2.1096,2.1096,2.1095,0,0,2.0677,2.0703,2.0737,2.0764,2.0804,2.0824,2.0833,2.0875,2.089,2.0936,2.0948,2.098,2.1042,2.1069,2.1091,2.1133,2.1141,2.1144,2.1157,2.1185,2.1189,2.1193,2.1209,2.1214,2.1148,2.1148,2.1148,0,2.068,2.0731,2.0754,2.079,2.0813,2.0829,2.0864,2.0889,2.0938,2.0955,2.095,2.1029,2.1056,2.1111,2.1122,2.1139,2.115,2.1139,2.1187,2.1191,2.1195,2.121,2.1216,2.1148,2.1148,2.1148,2.1148,0,2.0733,2.0769,2.0792,2.084,2.0866,2.0901,2.093,2.0954,2.0967,2.0988,2.1036,2.1069,2.1113,2.1127,2.1139,2.1184,2.1181,2.1181,2.1173,2.12,2.1215,2.1221,2.1149,2.1149,2.1149,2.1149,0,0,2.0756,2.0817,2.0825,2.0847,2.0893,2.0922,2.0959,2.1001,2.1022,2.1056,2.1089,2.1142,2.1143,2.1168,2.1184,2.1208,2.124,2.1206,2.1207,2.1211,2.1294,2.1293,2.13,2.1246,2.1247,2.1248,2.1291,0,2.079,2.0856,2.0878,2.0933,2.0968,2.0984,2.1017,2.1049,2.1071,2.1104,2.1128,2.1166,2.1164,2.118,2.1204,2.1231,2.1257,2.1228,2.1277,2.1279,2.1266,2.1307,2.1306,2.1345,2.1297,2.1298,2.1299,0,2.0839,2.0874,2.0933,2.0976,2.0992,2.102,2.1062,2.1093,2.1131,2.1145,2.1175,2.1189,2.123,2.122,2.1277,2.1257,2.1279,2.1295,2.1297,2.1302,2.129,2.1314,2.1358,2.1364,2.1308,2.1307,2.1306,0,2.085,2.0912,2.0956,2.0975,2.1026,2.1046,2.1069,2.1106,2.1131,2.1168,2.1184,2.1225,2.1248,2.128,2.1306,2.1296,2.1361,2.1353,2.1375,2.1374,2.1387,2.1386,2.1436,2.1401,2.1401,2.1401,2.1401,0,2.0886,2.0921,2.0962,2.0988,2.1029,2.1055,2.1095,2.1119,2.1152,2.1185,2.1202,2.1232,2.1264,2.1299,2.132,2.1365,2.1375,2.1388,2.1393,2.1387,2.1385,2.1401,2.1399,2.1403,2.1402,2.1402,2.1402,0,2.0905,2.0933,2.0982,2.1027,2.104,2.1068,2.1107,2.1135,2.1158,2.1199,2.121,2.1247,2.1289,2.1318,2.1373,2.1387,2.1436,2.144,2.1423,2.1425,2.1446,2.1443,2.1507,2.1517,2.1476,2.1476,2.1476,0,2.0926,2.0954,2.1003,2.1026,2.1048,2.1085,2.111,2.1138,2.1164,2.1211,2.1233,2.1277,2.1313,2.138,2.1412,2.1454,2.146,2.1479,2.1466,2.1459,2.1461,2.1459,2.1462,2.1481,2.1481,2.1482,2.1482,0,2.0961,2.0974,2.101,2.1051,2.1081,2.1115,2.1149,2.1168,2.1202,2.123,2.1274,2.1302,2.1358,2.1402,2.1447,2.1472,2.1483,2.1486,2.1493,2.1487,2.1476,2.1483,2.1428,2.1484,2.1484,2.1484,2.1484,2.1484,2.0982,2.1008,2.1046,2.1086,2.1115,2.1148,2.1176,2.1203,2.124,2.1287,2.1302,2.1348,2.1387,2.1449,2.1475,2.1512,2.151,2.1521,2.1524,2.1526,2.1526,2.147,2.152,2.152,2.152,2.152,2.152,0,2.1018,2.1044,2.1081,2.1128,2.116,2.1168,2.1207,2.1234,2.1273,2.1309,2.1345,2.1396,2.1439,2.1475,2.152,2.1542,2.1549,2.1553,2.1552,2.1557,2.1524,2.1514,2.1547,2.1547,2.1547,2.1547,2.1547,2.1547,2.104,2.1085,2.1103,2.1163,2.1189,2.1234,2.1256,2.1286,2.1315,2.1371,2.1407,2.143,2.1467,2.1514,2.1555,2.1564,2.158,2.1583,2.1594,2.1563,2.156,2.1557,2.1547,2.1587,2.1587,2.1624,2.1625,2.1625]},{"header":{"parameterUnit":"m.s-1","parameterCategory":1,"la1":30.2991,"la2":30.254,"lo1":-89.0895,"lo2":-89.0444,"dy":0.0017,"dx":0.0017,"nx":28,"ny":28,"refTime":"2025-03-16T09:00:00:Z","depth":0,"parameterNumber":3,"parameterNumberName":"V-component_of_WINDS"},"data":[0,0,0,0,0,0,0,0,0,0,0,0,0,0,0,0,0,0,0,0,0,0,0,0,0,0,0,0,0,0,0,0,0,0,0,0,0,0,0,0,0,0,0,0,0,0,0,0,0,0,0,0,0,0,0,0,0,0,-3.8428,-3.843,0,-3.855,-3.8551,-3.8553,-3.8615,-3.8615,-3.8616,-3.8616,-3.8736,-3.8739,-3.8743,0,0,0,0,0,0,0,0,0,0,0,0,0,-3.8249,-3.8252,-3.8428,-3.843,-3.8431,-3.855,-3.8552,-3.8553,-3.8615,-3.8615,-3.8616,-3.8616,-3.8735,-3.8739,-3.8743,0,0,0,0,0,0,0,0,0,0,0,0,0,-3.8344,-3.8253,-3.8428,-3.8477,-3.8482,-3.855,-3.8552,-3.8554,-3.8615,-3.8615,-3.8616,-3.8616,-3.8734,-3.8739,-3.8743,-3.877,0,0,-3.8758,-3.876,0,0,0,0,0,0,0,0,-3.8339,-3.8351,-3.8468,-3.8474,-3.848,-3.8568,-3.8533,-3.8626,-3.8615,-3.8565,-3.8616,-3.8616,-3.868,-3.8689,-3.8712,-3.8776,-3.8781,-3.8758,-3.8761,-3.8763,-3.8764,0,0,0,0,0,0,0,-3.8332,-3.8346,-3.8476,-3.847,-3.8477,-3.8492,-3.8506,-3.8551,-3.862,-3.8569,-3.8574,-3.8588,-3.8683,-3.8707,-3.8715,-3.8783,-3.8758,-3.8762,-3.8765,-3.8767,-3.8879,-3.8879,0,0,0,0,0,0,-3.8318,-3.834,-3.8473,-3.848,-3.8408,-3.8495,-3.8511,-3.8539,-3.862,-3.8632,-3.8588,-3.859,-3.8699,-3.8709,-3.8719,-3.8759,-3.8763,-3.8767,-3.877,-3.8879,-3.8879,-3.8879,0,0,0,0,0,0,-3.8314,-3.8329,-3.8468,-3.8411,-3.843,-3.8498,-3.853,-3.8542,-3.8566,-3.8634,-3.8646,-3.8599,-3.8699,-3.8713,-3.8758,-3.8763,-3.877,-3.8774,-3.8878,-3.8879,-3.8879,-3.8835,0,0,0,0,0,0,-3.8308,-3.8327,-3.8338,-3.8411,-3.8433,-3.8504,-3.853,-3.8544,-3.8574,-3.8579,-3.8648,-3.8659,-3.87,-3.8751,-3.8763,-3.877,-3.8777,-3.8878,-3.8879,-3.8879,-3.8836,-3.8834,-3.8832,0,0,0,0,0,-3.8302,-3.8319,-3.8338,-3.8354,-3.8448,-3.8505,-3.8517,-3.8565,-3.8574,-3.8586,-3.863,-3.8657,-3.8761,-3.8755,-3.8769,-3.8778,-3.8878,-3.8879,-3.8879,-3.8837,-3.8834,-3.8832,0,0,0,0,0,0,-3.8242,-3.8329,-3.8351,-3.8393,-3.8441,-3.8515,-3.8531,-3.8559,-3.8605,-3.8607,-3.8664,-3.8679,-3.8719,-3.8753,-3.8745,-3.881,-3.8822,-3.8826,-3.8786,-3.8784,-3.8781,-3.8773,-3.8781,0,0,0,0,0,-3.8234,-3.8274,-3.8348,-3.8377,-3.8401,-3.8462,-3.8488,-3.8521,-3.8573,-3.8593,-3.864,-3.8688,-3.8733,-3.876,-3.8804,-3.8842,-3.8859,-3.8855,-3.8853,-3.885,-3.8852,-3.8878,-3.8878,-3.888,-3.888,-3.888,0,0,-3.8218,-3.827,-3.8291,-3.8367,-3.8408,-3.8448,-3.8478,-3.8518,-3.8548,-3.8598,-3.8645,-3.8682,-3.874,-3.8783,-3.8804,-3.8812,-3.8856,-3.8851,-3.8848,-3.8852,-3.8878,-3.8878,-3.8878,-3.888,-3.888,-3.888,0,0,-3.8208,-3.8251,-3.8283,-3.8324,-3.8387,-3.8428,-3.8436,-3.8506,-3.8533,-3.8582,-3.8622,-3.8658,-3.8731,-3.8772,-3.8802,-3.8812,-3.884,-3.8825,-3.8812,-3.8837,-3.8836,-3.8837,-3.8842,-3.8843,-3.8827,-3.8827,-3.8827,0,-3.8179,-3.8241,-3.8294,-3.8334,-3.8367,-3.8417,-3.8449,-3.8486,-3.856,-3.8581,-3.859,-3.8686,-3.8728,-3.8782,-3.8785,-3.8807,-3.8819,-3.8817,-3.8832,-3.8833,-3.8834,-3.884,-3.8842,-3.8825,-3.8825,-3.8825,-3.8825,0,-3.8204,-3.8247,-3.8264,-3.8337,-3.8372,-3.8407,-3.8465,-3.8494,-3.8525,-3.8566,-3.8616,-3.8669,-3.8726,-3.8741,-3.877,-3.8801,-3.8804,-3.8822,-3.8836,-3.8831,-3.8837,-3.884,-3.8822,-3.8822,-3.8823,-3.8823,0,0,-3.8158,-3.8263,-3.8268,-3.8303,-3.8378,-3.8412,-3.845,-3.8508,-3.8533,-3.8582,-3.8617,-3.868,-3.8698,-3.8732,-3.8767,-3.8788,-3.8796,-3.8804,-3.8806,-3.8802,-3.8835,-3.8822,-3.8824,-3.8815,-3.8816,-3.8816,-3.8831,0,-3.816,-3.8233,-3.8283,-3.8336,-3.8378,-3.8428,-3.8462,-3.8511,-3.8551,-3.8592,-3.8635,-3.868,-3.8699,-3.8721,-3.8744,-3.879,-3.8804,-3.879,-3.8848,-3.8849,-3.8833,-3.8827,-3.8813,-3.8824,-3.8834,-3.8834,-3.8835,0,-3.8171,-3.8223,-3.8281,-3.8355,-3.8374,-3.8403,-3.8463,-3.8501,-3.8559,-3.8586,-3.8627,-3.8663,-3.8707,-3.8717,-3.8779,-3.8769,-3.8796,-3.8822,-3.8824,-3.8832,-3.8842,-3.8836,-3.8829,-3.8831,-3.8839,-3.8838,-3.8838,0,-3.8135,-3.8218,-3.8264,-3.8292,-3.8379,-3.8399,-3.8436,-3.8495,-3.8528,-3.8579,-3.8601,-3.8656,-3.8686,-3.8728,-3.8778,-3.8781,-3.8836,-3.885,-3.886,-3.8859,-3.8869,-3.8868,-3.8868,-3.8885,-3.8885,-3.8885,-3.8885,0,-3.8132,-3.8166,-3.8249,-3.8278,-3.8318,-3.8376,-3.8414,-3.8455,-3.8508,-3.8545,-3.8591,-3.8625,-3.869,-3.8732,-3.8772,-3.8819,-3.8831,-3.8855,-3.8865,-3.8852,-3.8849,-3.887,-3.8871,-3.8886,-3.8885,-3.8885,-3.8885,0,-3.8097,-3.8154,-3.8208,-3.8288,-3.8309,-3.8335,-3.8403,-3.8432,-3.8476,-3.8523,-3.8538,-3.8605,-3.8658,-3.8713,-3.8783,-3.8811,-3.8856,-3.8869,-3.8837,-3.8843,-3.8851,-3.885,-3.8865,-3.8871,-3.8882,-3.8882,-3.8882,0,-3.8092,-3.812,-3.8203,-3.8233,-3.8269,-3.8316,-3.8351,-3.841,-3.8444,-3.8515,-3.8536,-3.8593,-3.8641,-3.8723,-3.8778,-3.8834,-3.885,-3.8851,-3.8858,-3.8844,-3.8852,-3.885,-3.8854,-3.8849,-3.8848,-3.8848,-3.8848,0,-3.8077,-3.8105,-3.8154,-3.8214,-3.8255,-3.8304,-3.8355,-3.8377,-3.8446,-3.8482,-3.8538,-3.8576,-3.8651,-3.8707,-3.8769,-3.8807,-3.8839,-3.8846,-3.8851,-3.8838,-3.8818,-3.8831,-3.8832,-3.8845,-3.8845,-3.8845,-3.8845,-3.8846,-3.8058,-3.8087,-3.8151,-3.8205,-3.825,-3.8298,-3.8331,-3.838,-3.8428,-3.8495,-3.8527,-3.8583,-3.8643,-3.8731,-3.8769,-3.8814,-3.8823,-3.883,-3.8832,-3.8834,-3.8831,-3.8811,-3.8825,-3.8825,-3.8825,-3.8825,-3.8825,0,-3.8048,-3.8092,-3.8142,-3.8214,-3.8256,-3.8285,-3.8345,-3.8378,-3.8428,-3.8482,-3.853,-3.8596,-3.8652,-3.8712,-3.8772,-3.8796,-3.8813,-3.881,-3.8809,-3.8818,-3.8819,-3.8809,-3.8796,-3.8796,-3.8796,-3.8796,-3.8796,-3.8796,-3.8047,-3.8098,-3.8134,-3.8208,-3.8253,-3.831,-3.8341,-3.8386,-3.843,-3.8502,-3.8549,-3.859,-3.8647,-3.8712,-3.8765,-3.8782,-3.8802,-3.8795,-3.8816,-3.8815,-3.8817,-3.882,-3.8811,-3.8799,-3.8799,-3.8812,-3.8812,-3.8812]}]]